SCP
0 0 0 0 0 0 0 0 0 0 0 0 0 0 0 0 0 0 0 0 0 0 0 0 0 0 0 0 0 0 0 0 0 0 0 0 0 0 0 0 0 0 0 0
0 0 0 0 0 0 0 0 0 0 0 0 0 0 0 0 0 0 0 0 0 0 0 0 0 0 0 0 0 0 0 0 0 0 0 0 0 0 0 0 0 0 0 0
0 0 0 0 0 0 0 0 0 0 0 0 0 0 0 0 0 0 0 0 0 0 0 0 0 0 0 0 0 0 0 0 0 0 0 0 0 0 0 0 0 0 0 0
0 0 0 0 0 0 0 0 0 0 0 0 0 0 0 0 0 0 0 0 0 0 0 0 0 0 0 0 0 0 0 0 0 0 0 0 0 0 0 0 0 0 0 0
0 0 0 0 0 0 0 0 0 0 0 0 0 0 0 0 0 0 0 0 0 0 0 0 0 0 0 0 0 0 0 0 0 0 0 0 0 0 0 0 0 0 0 0
0 0 0 0 0 0 0 0 0 0 0 0 0 0 0 0 0 0 0 0 0 0 0 0 0 0 0 0 0 0 0 0 0 0 0 0 0 0 0 0 0 0 0 0
0 0 0 0 0 0 0 0 0 0 0 0 0 0 0 0 0 0 0 0 0 0 0 0 0 0 0 0 0 0 0 0 0 0 0 0 0 0 0 0 0 0 0 0
0 0 0 0 0 0 0 0 0 0 0 0 0 0 0 0 0 0 0 0 0 0 0 0 0 0 0 0 0 0 0 0 0 0 0 0 0 0 0 0 0 0 0 0
0 0 0 0 0 0 0 0 0 0 0 0 0 0 0 0 0 0 0 0 0 0 0 0 0 0 0 0 0 0 0 0 0 0 0 0 0 0 0 0 0 0 0 0
0 0 0 0 0 0 0 0 0 0 0 0 0 0 0 0 0 0 0 0 0 0 0 0 0 0 0 0 0 0 0 0 0 0 0 0 0 0 0 0 0 0 0 0
0 0 0 0 0 0 0 0 0 0 0 0 0 0 0 0 0 0 0 0 0 0 0 0 0 0 0 0 0 0 0 0 0 0 0 0 0 0 0 0 0 0 0 0
0 0 0 0 0 0 0 0 0 0 0 0 0 0 0 0 0 0 0 0 0 0 0 0 0 0 0 0 0 0 0 0 0 0 0 0 0 0 0 0 0 0 0 0
0 0 0 0 0 0 0 0 0 0 0 0 0 0 0 0 0 0 0 0 0 0 0 0 0 0 0 0 0 0 0 0 0 0 0 0 0 0 0 0 0 0 0 0
0 0 0 0 0 0 0 0 0 0 0 0 0 0 0 0 0 0 0 0 0 0 0 0 0 0 0 0 0 0 0 0 0 0 0 0 0 0 0 0 0 0 0 0
0 0 0 0 0 0 0 0 0 0 0 0 0 0 0 0 0 0 0 0 0 0 0 0 0 0 0 0 0 0 0 0 0 0 0 0 0 0 0 0 0 0 0 0
0 0 0 0 0 0 0 0 0 0 0 0 0 0 0 0 0 0 0 0 0 0 0 0 0 0 0 0 0 0 0 0 0 0 0 0 0 0 0 0 0 0 0 0
0 0 0 0 0 0 0 0 0 0 0 0 0 0 0 0 0 0 0 0 0 0 0 0 0 0 0 0 0 0 0 0 0 0 0 0 0 0 0 0 0 0 0 0
0 0 0 0 0 0 0 0 0 0 0 0 0 0 0 0 0 0 0 0 0 0 0 0 0 0 0 0 0 0 0 0 0 0 0 0 0 0 0 0 0 0 0 0
0 0 0 0 0 0 0 0 0 0 0 0 0 0 0 0 0 0 0 0 0 0 0 0 0 0 0 0 0 0 0 0 0 0 0 0 0 0 0 0 0 0 0 0
0 0 0 0 0 0 0 0 0 0 0 0 0 0 0 0 0 0 0 0 0 0 0 0 0 0 0 0 0 0 0 0 0 0 0 0 0 0 0 0 0 0 0 0
0 0 0 0 0 0 0 0 0 0 0 0 0 0 0 0 0 0 0 0 0 0 0 0 0 0 0 0 0 0 0 0 0 0 0 0 0 0 0 0 0 0 0 0
0 0 0 0 0 0 0 0 0 0 0 0 0 0 0 0 0 0 0 0 0 0 0 0 0 0 0 0 0 0 0 0 0 0 0 0 0 0 0 0 0 0 0 0
0 0 0 0 0 0 0 0 0 0 0 0 0 0 0 0 0 0 0 0 0 0 0 0 0 0 0 0 0 0 0 0 0 0 0 0 0 0 0 0 0 0 0 0
0 0 0 0 0 0 0 0 0 0 0 0 0 0 0 0 0 0 0 0 0 0 0 0 0 0 0 0 0 0 0 0 0 0 0 0 0 0 0 0 0 0 0 0
0 0 0 0 0 0 0 0 0 0 0 0 0 0 0 0 0 0 0 0 0 0 0 0 0 0 0 0 0 0 0 0 0 0 0 0 0 0 0 0 0 0 0 0
0 0 0 0 0 0 0 0 0 0 0 0 0 0 0 0 0 0 0 0 0 0 0 0 0 0 0 0 0 0 0 0 0 0 0 0 0 0 0 0 0 0 0 0
Wind_Speed
1 3 3 7 8 5 3 4 5 5 4 7 11 17 17 8 11 12 12 13 16 20 15 11 13 13 13 13 13 13 11 10 7 4 3 2 3 3 3 3 5 5 5 5
2 4 6 4 4 4 3 3 4 3 3 6 7 14 15 9 11 13 16 17 18 16 12 12 13 14 16 17 16 15 14 12 10 6 4 3 3 3 3 3 3 5 5 5
5 5 2 2 3 3 3 3 3 2 2 3 5 12 8 4 5 7 10 12 13 17 18 15 16 17 17 18 19 16 15 13 11 8 4 3 2 1 2 3 3 4 4 4
4 3 2 2 3 3 4 1 0 1 2 5 1 7 10 5 5 8 12 12 15 16 16 16 17 18 20 20 16 15 15 13 11 10 7 7 5 5 5 3 3 4 4 5
4 3 4 5 4 4 3 1 0 1 0 4 3 4 13 3 7 11 12 15 17 16 16 17 19 20 19 16 15 14 14 13 12 11 10 8 6 5 3 3 4 4 4 5
5 2 4 4 1 1 2 4 3 4 4 4 6 6 11 7 10 9 9 11 15 15 15 15 13 13 13 12 13 13 14 14 13 12 11 10 9 7 6 5 5 4 3 4
4 3 2 2 2 1 3 4 3 4 2 8 3 5 14 11 10 10 10 11 12 12 12 12 12 14 15 16 16 15 16 14 13 13 12 11 10 9 9 7 6 5 4 4
3 6 4 3 5 5 4 6 5 4 5 7 4 9 13 8 8 8 8 8 7 9 10 12 14 15 16 18 17 17 18 15 14 14 12 10 9 7 6 7 6 6 5 5
4 6 1 2 2 5 4 5 6 4 3 5 8 10 14 6 5 6 7 7 9 10 10 12 11 13 15 17 19 19 18 15 15 14 12 10 9 8 8 7 6 5 5 5
5 5 3 1 1 2 2 4 5 3 3 6 9 8 9 7 9 9 9 11 13 10 9 10 10 13 14 15 15 14 16 16 13 13 12 10 9 9 8 6 7 7 7 6
3 4 3 1 6 8 5 4 5 4 4 5 6 12 9 9 9 11 14 13 13 12 12 12 11 11 10 10 12 14 14 13 12 13 11 9 9 8 8 7 7 7 6 6
4 4 5 8 5 5 7 7 8 5 6 6 5 15 9 9 9 9 11 10 10 10 10 9 9 9 10 13 13 15 15 14 14 12 11 10 9 8 8 8 7 7 7 6
5 4 3 6 2 2 4 5 6 4 3 5 6 15 6 5 6 7 9 10 9 9 9 7 7 10 13 14 14 15 15 15 13 12 11 10 9 9 9 8 7 7 6 6
5 5 7 9 7 5 6 5 7 7 6 8 14 21 20 15 10 9 10 10 10 9 9 8 9 11 12 13 14 15 15 14 13 13 12 12 12 11 9 8 7 7 6 6
4 5 7 10 9 5 8 11 10 14 14 15 18 19 28 23 10 9 10 10 9 10 9 10 11 11 11 12 14 14 14 14 14 14 13 13 11 9 8 8 7 6 6 7
4 5 3 7 8 8 9 15 18 17 15 18 22 26 26 17 7 8 11 10 10 11 11 11 11 11 13 15 16 15 15 14 13 14 14 11 10 10 9 8 7 7 6 6
6 6 3 7 4 5 10 15 16 10 10 11 17 20 15 11 10 10 9 9 10 12 11 11 12 13 15 16 16 17 16 13 14 14 13 12 11 11 10 9 7 8 7 6
10 7 4 4 1 12 13 5 8 10 13 13 15 16 13 11 8 8 9 10 12 11 11 11 9 11 12 12 12 12 11 13 15 14 13 12 12 11 9 8 9 8 6 6
6 7 5 3 6 13 11 9 7 8 11 11 16 18 14 6 5 9 9 7 10 11 10 10 9 9 8 10 11 11 12 13 14 15 15 14 13 12 11 11 10 8 6 6
3 3 4 5 6 12 11 4 1 2 10 8 6 10 7 2 3 8 7 5 7 8 8 9 7 6 8 8 10 13 14 15 18 18 16 14 13 13 12 12 10 7 6 7
4 3 6 8 10 14 10 2 3 4 9 4 1 4 3 5 9 9 9 9 9 10 11 9 8 8 9 8 11 14 15 19 18 14 13 13 13 13 12 10 8 7 7 5
11 9 9 7 8 15 7 6 9 9 4 5 5 5 6 9 11 12 12 12 11 11 11 10 8 10 7 9 13 15 18 15 11 12 13 13 13 11 10 10 8 7 7 6
9 11 9 13 13 7 5 9 7 4 7 8 8 10 9 11 13 13 12 12 11 11 11 9 9 10 7 10 14 17 15 11 12 14 14 13 13 12 10 10 9 7 6 5
7 6 6 9 11 11 9 9 10 11 11 11 11 12 11 13 15 15 13 11 11 11 10 8 8 10 11 10 14 16 10 12 15 15 14 13 13 12 11 9 8 7 7 6
8 5 8 13 10 10 10 9 9 9 9 11 12 12 12 12 13 13 12 11 10 10 9 7 8 11 13 10 13 13 11 14 15 14 13 13 13 12 11 10 9 9 8 8
10 12 16 22 15 14 14 11 12 13 12 12 12 11 10 10 11 11 10 9 9 10 10 9 9 11 12 9 11 12 12 15 15 14 13 11 11 10 10 9 8 13 12 14
Wind_Direction
110 93 213 218 204 214 220 233 261 263 187 185 234 258 269 219 216 229 222 218 221 226 222 206 199 189 182 182 182 181 178 176 164 157 166 180 213 226 243 239 230 228 232 242
38 249 230 198 195 223 237 268 273 281 191 203 265 273 270 223 210 219 220 221 224 228 221 211 199 191 190 189 188 186 185 180 178 173 165 171 178 208 222 234 234 232 237 245
221 240 197 189 221 241 263 244 254 280 347 263 308 300 286 256 222 232 228 224 225 223 222 213 204 199 197 196 192 190 188 183 181 170 151 150 146 234 242 233 234 240 245 251
240 228 200 205 236 199 256 217 202 318 355 297 238 295 290 272 266 248 238 230 231 228 224 216 209 204 203 202 193 190 184 182 179 171 169 170 184 202 216 214 225 247 251 254
260 208 205 223 231 192 218 155 113 62 116 309 253 228 280 285 267 258 242 232 233 229 222 219 212 209 206 197 190 187 182 183 179 178 178 178 194 205 214 224 241 249 252 252
243 226 211 212 173 148 115 59 52 48 63 288 228 187 273 236 221 242 244 232 231 229 223 223 216 204 198 188 186 184 184 186 182 182 182 185 194 201 212 225 236 243 245 251
291 267 229 157 149 79 94 81 3 331 333 257 231 211 251 244 223 219 225 231 230 224 218 216 206 199 195 188 189 187 187 189 186 186 189 192 195 197 208 217 225 232 238 243
284 286 230 199 189 181 182 149 172 233 251 286 287 238 254 255 248 235 238 243 241 228 217 215 210 202 196 192 189 189 192 191 188 191 195 194 193 195 206 212 213 221 228 238
217 265 223 179 179 172 186 201 178 159 267 273 271 278 294 264 261 237 236 245 246 237 226 220 211 201 196 193 193 192 192 191 191 193 192 194 195 197 205 211 215 222 230 242
188 257 269 194 65 250 200 149 111 149 236 271 284 270 256 272 251 244 241 240 246 245 240 230 215 205 200 197 193 191 192 193 190 190 192 197 197 200 203 206 217 225 234 241
182 215 274 260 211 202 169 188 178 178 188 198 269 269 231 238 239 232 234 235 239 238 234 229 219 207 195 187 188 192 194 192 191 192 193 193 193 196 200 209 219 225 233 238
173 150 255 251 236 193 186 195 164 181 233 207 229 267 257 246 258 244 246 246 245 243 239 230 214 193 190 193 194 196 196 196 196 192 190 195 192 193 202 214 221 224 233 238
150 143 305 322 304 215 226 216 193 178 174 203 218 265 275 281 281 262 258 264 263 259 252 234 207 200 201 200 199 199 199 199 193 187 189 193 195 198 207 214 219 224 232 241
129 179 199 226 236 196 220 226 197 181 210 234 232 256 275 275 275 275 267 263 264 260 250 234 222 215 210 205 202 201 201 196 190 189 191 197 201 202 206 210 216 222 229 241
142 222 239 254 260 244 240 245 224 214 220 232 252 255 267 276 271 257 261 268 268 262 251 237 230 223 214 210 207 205 202 196 191 191 196 203 200 196 199 206 214 222 230 243
167 219 257 272 262 248 253 253 246 239 235 240 258 268 267 279 279 267 267 267 265 262 256 247 236 226 218 214 210 205 203 196 189 193 200 197 190 194 200 206 212 223 233 243
186 188 213 265 288 328 265 239 235 225 216 212 241 254 272 281 272 263 264 261 257 262 264 256 240 229 224 217 208 205 200 188 189 196 196 191 191 198 203 206 211 223 233 242
169 169 195 262 322 243 245 237 222 232 244 226 244 260 267 261 272 269 259 258 266 267 266 263 250 238 229 217 206 199 187 187 193 196 194 191 190 198 198 202 216 225 227 236
170 163 184 203 246 270 286 270 213 214 269 238 239 259 271 295 318 294 267 236 244 259 265 265 255 242 229 211 193 181 187 190 195 199 197 193 191 193 196 207 218 220 222 235
92 136 178 197 224 251 252 253 154 124 285 277 234 257 284 57 323 281 291 298 281 279 275 272 269 248 231 209 177 183 193 196 203 202 198 191 190 193 200 208 212 212 217 232
161 190 205 218 235 260 260 250 140 210 253 310 316 272 274 220 233 260 292 294 286 283 280 276 263 248 235 194 178 196 202 209 207 195 188 186 189 195 199 202 206 209 217 226
183 186 204 192 218 255 232 159 198 229 294 313 309 295 279 265 271 279 284 284 285 285 282 274 261 256 236 187 189 206 215 212 188 182 185 188 189 191 193 197 203 206 210 220
207 203 204 202 224 252 190 213 245 288 288 288 289 291 289 283 281 283 282 282 284 280 279 274 259 261 242 202 201 217 220 187 177 182 188 188 188 191 190 192 198 201 204 212
240 223 232 251 257 264 264 255 262 261 261 272 280 285 286 282 284 286 286 285 284 284 282 279 268 260 254 221 215 224 207 178 180 187 190 187 187 189 192 194 196 199 201 205
229 231 248 262 270 282 263 259 268 280 285 287 288 288 286 285 286 286 289 288 286 286 286 278 263 260 258 234 222 218 195 181 187 191 191 189 189 188 191 197 200 200 203 198
222 238 254 266 270 271 280 280 283 287 288 290 293 295 295 290 287 291 292 290 290 290 290 288 276 267 266 245 229 213 195 188 188 191 192 190 187 187 188 190 200 217 212 221